Flag for India Weather past 2 weeks in Ganganagar, Rajasthan, India

81 °F


Feels Like: 83 °F
Forecast: 75 / 99 °F
Wind: 3 mph from Northeast

Location: Lahore Airport

Current Time: Oct 7, 2015 at 9:08:27 AM

Latest Report: Oct 7, 2015 at 8:25 AM

Visibility: 2 mi

Pressure: 29.89 "Hg

Humidity: 66%

Dew point: 68 °F

Location of GanganagarLocation

Historic Weather in Ganganagar — Graph


Ganganagar temperature yesterday

Maximum temperature yesterday: 97 °F (at 2:55 PM)
Minimum temperature yesterday: 73 °F (at 6:25 AM)
Average temperature yesterday: 85 °F

Past Weeks' High & Low Weather Summary

High99 °F (Oct 1, 3:25 PM)100% (Sep 22, 7:55 AM)30.07 "Hg (Sep 22, 7:55 AM)
Low70 °F (Sep 22, 7:55 AM)29% (Oct 1, 3:25 PM)29.47 "Hg (Sep 22, 2:25 PM)
Average82 °F66%29.81 "Hg
* Reported Sep 22 7:55 AM — Oct 7 7:55 AM, Ganganagar, Weather by CustomWeather, © 2015

Note: Actual official high and low records may vary slightly from our data, if they occured in-between our weather recording intervals... More about our weather records


Ganganagar weather history for previous 24 hours

Time TempWeatherWind HumidityBarometerVisibility
7:55 AM
Wed, Oct 7
81 °FSmoke.No wind70%29.86 "Hg3 mi
7:25 AM79 °FPassing clouds.No wind74%29.86 "Hg3 mi
5:25 AM79 °FClear.No wind74%29.83 "Hg2 mi
4:55 AM79 °FClear.3 mph79%29.83 "Hg2 mi
4:25 AM81 °FClear.5 mph74%29.83 "Hg2 mi
3:55 AM81 °FClear.3 mph74%29.83 "Hg2 mi
3:25 AM82 °FPassing clouds.No wind70%29.83 "Hg2 mi
2:25 AM82 °FPassing clouds.5 mph70%29.83 "Hg2 mi
1:25 AM82 °FPassing clouds.3 mph66%29.86 "Hg2 mi
12:55 AM82 °FPassing clouds.No wind66%29.86 "Hg2 mi
12:25 AM84 °FPassing clouds.No wind66%29.86 "Hg2 mi
11:55 PM
Tue, Oct 6
84 °FPassing clouds.No wind66%29.83 "Hg2 mi
11:25 PM84 °FPassing clouds.No wind66%29.83 "Hg2 mi
10:55 PM84 °FPassing clouds.No wind62%29.83 "Hg2 mi
10:25 PM86 °FPassing clouds.No wind59%29.83 "Hg2 mi
9:55 PM86 °FPassing clouds.No wind59%29.83 "Hg2 mi
9:25 PM86 °FPassing clouds.No wind59%29.83 "Hg2 mi
8:55 PM86 °FPassing clouds.3 mph59%29.83 "Hg2 mi
8:25 PM86 °FPassing clouds.3 mph59%29.83 "Hg2 mi
7:55 PM88 °FPassing clouds.3 mph55%29.80 "Hg2 mi
6:55 PM88 °FClear.3 mph52%29.80 "Hg2 mi
6:25 PM90 °FHaze.3 mph49%29.80 "Hg3 mi
5:55 PM91 °FClear.5 mph46%29.80 "Hg3 mi
5:25 PM93 °FHaze.5 mph44%29.80 "Hg3 mi
4:55 PM95 °FClear.5 mph41%29.80 "Hg3 mi
4:25 PM95 °FClear.5 mph41%29.80 "Hg3 mi
3:55 PM95 °FClear.3 mph41%29.80 "Hg4 mi
3:25 PM97 °FClear.3 mph39%29.83 "Hg4 mi
2:55 PM97 °FClear.3 mph37%29.83 "Hg4 mi
2:25 PM95 °FHaze.3 mph39%29.83 "Hg3 mi
1:55 PM95 °FHaze.5 mph41%29.86 "Hg2 mi
1:25 PM95 °FHaze.3 mph41%29.86 "Hg2 mi
12:55 PM93 °FHaze.5 mph44%29.89 "Hg2 mi
12:25 PM91 °FHaze.No wind46%29.89 "Hg2 mi
11:55 AM88 °FPassing clouds.3 mph52%29.92 "Hg2 mi
11:25 AM88 °FPassing clouds.No wind52%29.92 "Hg2 mi
10:55 AM86 °FPassing clouds.No wind59%29.92 "Hg2 mi
10:25 AM86 °FPassing clouds.No wind59%29.92 "Hg2 mi
9:55 AM82 °FSmoke.No wind62%29.92 "Hg2 mi
9:25 AM82 °FPassing clouds.3 mph62%29.92 "Hg2 mi
Weather by CustomWeather, © 2015

See weather overviewHow to use our weather pages